Regional Weather Roundup
Issued by NWS Kansas City/Pleasant Hill, MO

Home | Current Version | Previous Version | Text Only | Print | Product List | Glossary On
Versions: 1 2 3 4 5 6 7 8 9 10 11 12 13 14 15 16 17 18 19 20 21 22 23 24 25 26 27
000
ASUS43 KEAX 221210
RWREAX

WEATHER ROUNDUP FOR EASTERN KANSAS AND NORTHWEST MISSOURI
NATIONAL WEATHER SERVICE KANSAS CITY/PLEASANT HILL MO
700 AM CDT SUN OCT 22 2017

KSZ040-057-103>105-MOZ028-029-037-043-221300-
...KANSAS CITY METROPOLITAN AREA...

CITY           SKY/WX    TMP DP  RH WIND       PRES   REMARKS
K.C. INTL      CLOUDY    47  46  97 W6        30.07S
6HR MIN TEMP:  47; 6HR MAX TEMP:  51; 6HR PCP:  0.29;

K.C. DOWNTOWN  CLOUDY    51  48  89 NW6       30.06S
6HR MIN TEMP:  51; 6HR MAX TEMP:  54; 6HR PCP:  0.79;

LEES SUMMIT    CLOUDY    49  49 100 NW9       30.06R
6HR MIN TEMP:  49; 6HR MAX TEMP:  52; 6HR PCP:  0.69;

OLATHE - IXD   CLOUDY    49  46  90 NW9       30.08R
6HR MIN TEMP:  49; 6HR MAX TEMP:  52; 6HR PCP:  0.41;

OLATHE - OJC   CLOUDY    48  47  96 N7        30.06S
6HR MIN TEMP:  48; 6HR MAX TEMP:  51; 6HR PCP:  0.49;

LAWRENCE       CLOUDY    48  48 100 W3        30.09R

$$

MOZ001>008-011>017-020>025-030>033-038>040-044>046-053-054-221300-
...NORTHERN AND CENTRAL MISSOURI...

CITY           SKY/WX    TMP DP  RH WIND       PRES   REMARKS
ST. JOSEPH     CLOUDY    48  47  96 NW3       30.08R
6HR MIN TEMP:  48; 6HR MAX TEMP:  52; 6HR PCP:  0.06;

MOSBY          CLOUDY    50  46  87 NW7       30.06R
WARRENSBURG    DRIZZLE   48  46  93 NW7       30.04S
WHITEMAN AFB   HVY RAIN  50  49  94 NW12      29.99R
6HR MIN TEMP:  50; 6HR MAX TEMP:  58; 6HR PCP:  0.64;

CLINTON        LGT RAIN  50  50 100 NW10G16   30.04R
SEDALIA        LGT RAIN  53  53 100 NW9       30.02R
6HR MIN TEMP:  53; 6HR MAX TEMP:  62; 6HR PCP:  0.60;

WARSAW         NOT AVBL
CHILLICOTHE      N/A     50  49  96 NW8       30.05R
6HR MIN TEMP:  50; 6HR MAX TEMP:  53; 6HR PCP:  0.47;

KIRKSVILLE     LGT RAIN  50  50 100 N9G18     29.98R
6HR MIN TEMP:  50; 6HR MAX TEMP:  61; 6HR PCP:  0.68;


$$

MOZ041-047>049-056>058-063>065-088>090-097-221300-
...EASTERN AND SOUTHERN MISSOURI...

CITY           SKY/WX    TMP DP  RH WIND       PRES   REMARKS
ST. LOUIS INTL CLOUDY    70  65  84 SE12      29.88S
6HR MIN TEMP:  69; 6HR MAX TEMP:  71; 6HR PCP: TRACE;

SPIRIT OF STL  HVY RAIN  63  62  97 W7        29.89R FOG
COLUMBIA       CLOUDY    54  53  97 N9        29.95R
JEFFERSON CITY CLOUDY    56  53  90 CALM      29.96R
ROLLA          LGT RAIN  58  58 100 NW8       29.96R
OSAGE BEACH    LGT RAIN  55  54  96 W5        29.98R
SPRINGFIELD    RAIN      56  56 100 NW10      29.98S
BRANSON        LGT RAIN  57  57 100 SW5       29.99S
JOPLIN         LGT RAIN  52  52 100 NW6       30.05R
WEST PLAINS    CLOUDY    59  57  93 N5        29.97R

$$

IAZ060-094-KSZ022-034>040-054-083-096-NEZ052-066-093-221300-
...KANSAS...SOUTHEAST NEBRASKA AND IOWA...

CITY           SKY/WX    TMP DP  RH WIND       PRES   REMARKS
TOPEKA         PTCLDY    47  46  97 W6        30.10R
6HR MIN TEMP:  47; 6HR MAX TEMP:  52; 6HR PCP: TRACE;

MANHATTAN      CLEAR     43  41  93 CALM      30.14R
EMPORIA        CLEAR     44  41  89 W6        30.11S
CHANUTE        MOCLDY    50  48  93 NW9       30.09R
WICHITA        CLEAR     46  42  86 NW13      30.15R
OMAHA          CLOUDY    45  37  73 W3        30.09R
LINCOLN        CLEAR     41  36  82 CALM      30.13R
FALLS CITY     PTCLDY    45  41  86 W7        30.08R
LAMONI         CLOUDY    50  47  89 NW6       30.02R
DES MOINES     CLOUDY    50  46  86 NW10      30.01R

$$





USA.gov is the U.S. government's official web portal to all federal, state and local government web resources and services.